FW5493 Weather Reports


time (UTC)temp
C
wind
direction
speed
KPH
gust
KPH
rain 1hr
cm
rain 24hr
cm
rain mn
cm
humidity
%
barometer
mb
20260502234528 20 87 6.4 17.7 0.00 0.00 0.00 30 1017.9
20260502233030 20 71 3.2 12.9 0.00 0.00 0.00 29 1018.2
20260502231531 20 45 9.7 19.3 0.00 0.00 0.00 29 1018.4
20260502230030 20 5 11.3 51.5 0.00 0.00 0.00 32 1018.6
20260502224532 19 80 1.6 14.5 0.00 0.00 0.00 32 1018.6
20260502223029 20 333 6.4 17.7 0.00 0.00 0.00 31 1018.9
20260502221533 20 0 0.0 6.4 0.00 0.00 0.00 32 1019.3
20260502220031 19 283 6.4 17.7 0.00 0.00 0.00 33 1019.5
20260502214530 20 332 14.5 22.5 0.00 0.00 0.00 32 1019.8
20260502213039 20 148 6.4 19.3 0.00 0.00 0.00 33 1019.9
20260502211532 20 0 6.4 22.5 0.00 0.00 0.00 32 1020.1
20260502210031 20 32 6.4 24.1 0.00 0.00 0.00 33 1020.1
20260502204532 19 296 8.0 22.5 0.00 0.00 0.00 34 1020.4
20260502203032 18 338 12.9 20.9 0.00 0.00 0.00 34 1020.5
20260502201534 19 13 8.0 19.3 0.00 0.00 0.00 35 1020.8
20260502200030 18 41 8.0 20.9 0.00 0.00 0.00 35 1021.0
20260502194531 18 319 12.9 20.9 0.00 0.00 0.00 34 1021.1
20260502193032 18 19 9.7 25.7 0.00 0.00 0.00 35 1021.3
20260502191529 18 50 16.1 25.7 0.00 0.00 0.00 35 1021.4
20260502190029 18 76 12.9 32.2 0.00 0.00 0.00 36 1021.4
20260502184531 18 51 14.5 27.4 0.00 0.00 0.00 37 1021.5
20260502183033 18 49 22.5 33.8 0.00 0.00 0.00 36 1021.7
20260502181543 18 35 17.7 33.8 0.00 0.00 0.00 38 1021.9
20260502163033 15 51 8.0 22.5 0.00 0.00 0.00 43 1022.2
20260502161530 15 20 8.0 17.7 0.00 0.00 0.00 43 1022.3
20260502151529 12 44 1.6 12.9 0.00 0.00 0.00 47 1022.4
20260502123028 8 294 12.9 25.7 0.00 0.00 0.00 61 1021.1
20260502121531 8 317 17.7 29.0 0.00 0.00 0.00 62 1020.9
20260502114531 7 288 6.4 17.7 0.00 0.00 0.00 63 1020.6
20260502113028 6 284 6.4 14.5 0.00 0.00 0.00 62 1020.6
20260502111528 6 268 12.9 17.7 0.00 0.00 0.00 61 1020.6
20260502110031 4 295 11.3 20.9 0.00 0.00 0.00 65 1020.5
20260502104530 3 229 8.0 11.3 0.00 0.00 0.00 63 1020.3
20260502103030 3 274 3.2 35.4 0.00 0.00 0.00 62 1020.2
20260502101535 3 190 1.6 4.8 0.00 0.00 0.00 64 1019.6
20260502091530 6 214 0.0 4.8 0.00 0.00 0.00 56 1019.2
20260502071528 9 0 0.0 0.0 0.00 0.00 0.00 42 1018.8
20260502070028 9 0 0.0 4.8 0.00 0.00 0.00 41 1018.9
20260502064549 9 232 1.6 6.4 0.00 0.00 0.00 40 1018.8
20260502063036 10 232 1.6 4.8 0.00 0.00 0.00 38 1018.7
20260502061528 10 232 3.2 8.0 0.00 0.00 0.00 39 1018.7
20260502060030 9 292 1.6 4.8 0.00 0.00 0.00 42 1018.5
20260502054530 10 292 3.2 6.4 0.00 0.00 0.00 41 1018.5
20260502053028 10 277 3.2 9.7 0.00 0.00 0.00 40 1018.3
20260502051538 10 285 3.2 6.4 0.00 0.00 0.00 40 1018.3
20260502050029 11 303 4.8 8.0 0.00 0.00 0.00 37 1018.3
20260502044538 11 0 0.0 0.0 0.00 0.00 0.00 37 1018.3
20260502043031 12 290 3.2 6.4 0.00 0.00 0.00 36 1018.3
20260502041534 12 274 3.2 9.7 0.00 0.00 0.00 35 1018.2
20260502040040 13 275 6.4 14.5 0.00 0.00 0.00 35 1018.1
20260502034533 14 281 9.7 14.5 0.00 0.00 0.00 33 1018.0
20260502033033 15 267 8.0 17.7 0.00 0.00 0.00 33 1017.6
20260502031534 15 273 9.7 14.5 0.00 0.00 0.00 32 1017.5
20260502030032 16 217 4.8 11.3 0.00 0.00 0.00 30 1017.3
20260502024532 16 191 4.8 11.3 0.00 0.00 0.00 30 1017.2
20260502023037 17 181 3.2 11.3 0.00 0.00 0.00 29 1017.0
20260502021607 18 183 3.2 9.7 0.00 0.00 0.00 30 1017.0
20260502020033 20 184 4.8 9.7 0.00 0.00 0.00 27 1016.9
20260502014543 21 166 4.8 9.7 0.00 0.00 0.00 26 1017.0
20260502013031 22 184 6.4 16.1 0.00 0.00 0.00 24 1017.0
20260502011530 22 213 9.7 19.3 0.00 0.00 0.00 21 1017.0
20260502010033 23 251 8.0 20.9 0.00 0.00 0.00 22 1017.1
20260502004535 22 257 6.4 17.7 0.00 0.00 0.00 22 1017.2
20260502003031 23 212 8.0 19.3 0.00 0.00 0.00 22 1017.3
20260502001549 23 266 8.0 30.6 0.00 0.00 0.00 22 1017.2
20260502000035 23 254 11.3 24.1 0.00 0.00 0.00 21 1017.5